Tracking 18630 objects as of 26-May-2017
HD Live streaming from Space Station
objects crossing your sky now

THORAD AGENA D DEB

Track THORAD AGENA D DEB now!
10-day predictions


NORAD ID: 4935
Int'l Code: 1970-025GB
Perigee: 911.0 km
Apogee: 1,009.8 km
Inclination: 99.8 °
Period: 104.1 minutes
Semi major axis: 7331 km
RCS: 0.0346 m2 (small)
Launch date: April 8, 1970
Source: United States (US)
Launch site: AIR FORCE WESTERN TEST RANGE (AFWTR)

Note: This is SATELLITE DEBRIS
Your satellite tracking list
Your tracking list is empty





NASA's NSSDC Master Catalog

Two Line Element Set (TLE):
1  4935U 70025GB  17145.67366566 +.00000232 +00000-0 +25246-3 0  9997
2  4935 099.8317 059.3246 0067360 029.0738 036.5618 13.83016142359117
Source of the keplerian elements: AFSPC